Flag for Portugal Weather past 2 weeks in Ponta Delgada, Azores, Portugal

Now
57 °F

Broken clouds.


Feels Like: 57 °F
Forecast: 60 / 63 °F
Wind: 3 mph from Northeast

Location: Ponta Delgada / Nordela Acores

Current Time: Dec 20, 2014 at 8:51:33 AM

Latest Report: Dec 20, 2014 at 8:00 AM


Visibility: N/A

Pressure: 30.63 "Hg

Humidity: 67%

Dew point: 46 °F

Location of Ponta DelgadaLocation

Historic Weather in Ponta Delgada — Graph

°F

Ponta Delgada temperature yesterday

Maximum temperature yesterday: 63 °F (at 12:00 PM)
Minimum temperature yesterday: 59 °F (at 1:00 AM)
Average temperature yesterday: 60 °F

Past Weeks' High & Low Weather Summary

 TemperatureHumidityPressure
High63 °F (Dec 9, 12:30 PM)94% (Dec 11, 2:30 AM)30.72 "Hg (Dec 11, 2:30 AM)
Low52 °F (Dec 6, 12:00 AM)45% (Dec 6, 11:30 AM)30.21 "Hg (Dec 12, 12:30 PM)
Average57 °F73%30.56 "Hg
* Reported Dec 5 7:00 AM — Dec 20 7:30 AM, Ponta Delgada, Weather by CustomWeather, © 2014

Note: Actual official high and low records may vary slightly from our data, if they occured in-between our weather recording intervals... More about our weather records

Advertising

Ponta Delgada weather history for previous 24 hours

 ConditionsComfort  
Time TempWeatherWind HumidityBarometerVisibility
7:30 AM
Dec 20
57 °FPassing clouds.3 mph67%30.63 "HgN/A
7:00 AM57 °FPassing clouds.3 mph67%30.63 "HgN/A
6:30 AM57 °FPassing clouds.5 mph67%30.60 "HgN/A
6:00 AM57 °FPassing clouds.2 mph67%30.60 "HgN/A
5:30 AM57 °FPassing clouds.5 mph67%30.60 "HgN/A
5:00 AM57 °FPassing clouds.5 mph63%30.60 "HgN/A
4:00 AM59 °FPassing clouds.10 mph68%30.60 "HgN/A
3:30 AM59 °FPartly cloudy.7 mph68%30.60 "HgN/A
3:00 AM57 °FPartly cloudy.5 mph72%30.60 "HgN/A
2:30 AM59 °FPassing clouds.7 mph63%30.60 "HgN/A
2:00 AM57 °FPassing clouds.8 mph67%30.60 "HgN/A
1:30 AM59 °FPassing clouds.10 mph68%30.60 "HgN/A
1:00 AM59 °FPassing clouds.10 mph72%30.60 "HgN/A
12:30 AM59 °FPassing clouds.8 mph68%30.60 "HgN/A
12:00 AM59 °FPassing clouds.8 mph68%30.63 "HgN/A
11:30 PM
Dec 19
59 °FPassing clouds.7 mph68%30.63 "HgN/A
11:00 PM59 °FPassing clouds.8 mph68%30.63 "HgN/A
10:30 PM59 °FPassing clouds.7 mph68%30.63 "HgN/A
10:00 PM59 °FPassing clouds.8 mph68%30.60 "HgN/A
9:30 PM59 °FPassing clouds.10 mph72%30.63 "HgN/A
9:00 PM59 °FPassing clouds.2 mph68%30.60 "HgN/A
8:00 PM59 °FPassing clouds.3 mph68%30.60 "HgN/A
7:30 PM59 °FPassing clouds.3 mph68%30.60 "HgN/A
7:00 PM59 °FPassing clouds.3 mph68%30.57 "HgN/A
6:30 PM59 °FPassing clouds.5 mph72%30.57 "HgN/A
6:00 PM59 °FPassing clouds.6 mph72%30.57 "HgN/A
5:30 PM59 °FPassing clouds.6 mph72%30.57 "HgN/A
5:00 PM61 °FPartly sunny.7 mph68%30.54 "HgN/A
4:30 PM61 °FPartly sunny.7 mph68%30.54 "HgN/A
4:00 PM61 °FPartly sunny.6 mph68%30.54 "HgN/A
3:30 PM61 °FPartly sunny.9 mph72%30.54 "HgN/A
3:00 PM61 °FPartly sunny.8 mph72%30.54 "HgN/A
2:30 PM61 °FPartly sunny.8 mph72%30.54 "HgN/A
2:00 PM61 °FPartly sunny.9 mph72%30.54 "HgN/A
1:30 PM61 °FPartly sunny.8 mph72%30.54 "HgN/A
1:00 PM63 °FPartly sunny.6 mph64%30.54 "HgN/A
12:30 PM63 °FPartly sunny.7 mph64%30.54 "HgN/A
12:00 PM63 °FPartly sunny.7 mph68%30.57 "HgN/A
11:30 AM61 °FPartly sunny.7 mph72%30.57 "HgN/A
11:00 AM61 °FPartly sunny.8 mph77%30.57 "HgN/A
10:30 AM61 °FPartly sunny.7 mph77%30.57 "HgN/A
10:00 AM61 °FPartly sunny.6 mph77%30.57 "HgN/A
9:30 AM61 °FPartly sunny.7 mph72%30.57 "HgN/A
9:00 AM61 °FPartly sunny.9 mph77%30.54 "HgN/A
8:30 AM61 °FPartly sunny.10 mph72%30.54 "HgN/A
8:00 AM61 °FPartly sunny.9 mph72%30.54 "HgN/A
Weather by CustomWeather, © 2014

See weather overviewHow to use our weather pages